Location: Newark
(52.4787°S, 179.0532°W)
Time: 00:49:23
(UTC+00:00)

Tiros 1 - All Passes

Search period start: 12 November 2019 00:00
Search period end: 22 November 2019 00:00
Orbit: 630 x 664 km, 48.4° (Epoch: 11 November)

Date Brightness Start Highest point End Pass type
(mag) Time Alt. Az. Time Alt. Az. Time Alt. Az.
12 Nov - 16:33:41 10° NNW 16:37:15 21° NNE 16:40:48 10° E daylight
12 Nov - 18:14:09 10° WNW 18:18:45 44° NNE 18:23:19 10° E daylight
12 Nov - 19:55:55 10° W 20:00:36 52° N 20:05:15 10° ENE daylight
12 Nov - 21:38:06 10° W 21:42:18 30° NNW 21:46:26 10° NE daylight
13 Nov - 15:20:31 10° NNE 15:21:46 11° NE 15:23:01 10° ENE daylight
13 Nov - 16:58:39 10° NW 17:02:56 32° NNE 17:07:11 10° E daylight
13 Nov - 18:39:57 10° WNW 18:44:39 52° N 18:49:19 10° E daylight
13 Nov - 20:21:55 10° W 20:26:30 43° NNW 20:31:00 10° NE daylight
13 Nov - 22:04:31 10° W 22:07:57 20° NW 22:11:20 10° NNE daylight
14 Nov - 15:43:48 10° N 15:47:15 20° NE 15:50:43 10° E daylight
14 Nov - 17:24:08 10° NW 17:28:44 43° NNE 17:33:18 10° E daylight
14 Nov - 19:05:52 10° W 19:10:35 52° N 19:15:15 10° ENE daylight
14 Nov - 20:48:02 10° W 20:52:18 32° NNW 20:56:30 10° NE daylight
14 Nov - 22:32:13 10° WNW 22:33:26 11° NW 22:34:40 10° NNW daylight
15 Nov - 14:31:22 10° NE 14:31:48 10° NE 14:32:13 10° NE visible
15 Nov - 16:08:41 10° NW 16:12:55 30° NNE 16:17:09 10° E daylight
15 Nov - 17:49:55 10° WNW 17:54:38 52° N 17:59:18 10° E daylight
15 Nov - 19:31:52 10° W 19:36:29 45° NNW 19:41:02 10° ENE daylight
15 Nov - 21:14:25 10° W 21:17:58 21° NW 21:21:29 10° NNE daylight
16 Nov - 14:53:56 10° N 14:57:16 19° NE 15:00:37 10° E visible
16 Nov - 16:34:08 10° NW 16:38:43 42° NNE 16:43:16 10° E daylight
16 Nov - 18:15:50 10° W 18:20:33 53° N 18:25:14 10° ENE daylight
16 Nov - 19:57:58 10° W 20:02:18 33° NNW 20:06:34 10° NE daylight
16 Nov - 21:41:45 10° WNW 21:43:28 12° NW 21:45:11 10° NNW daylight
17 Nov - 15:18:44 10° NNW 15:22:55 29° NNE 15:27:06 10° E daylight
17 Nov - 16:59:53 10° WNW 17:04:36 51° N 17:09:17 10° E daylight
17 Nov - 18:41:49 10° W 18:46:28 46° NNW 18:51:02 10° ENE daylight
17 Nov - 20:24:18 10° W 20:27:59 22° NNW 20:31:37 10° NNE daylight
18 Nov - 14:04:05 10° N 14:07:17 18° NE 14:10:30 10° ENE visible
18 Nov - 15:44:08 10° NW 15:48:41 41° NNE 15:53:14 10° E daylight
18 Nov - 17:25:48 10° WNW 17:30:32 53° N 17:35:14 10° ENE daylight
18 Nov - 19:07:54 10° W 19:12:17 34° NNW 19:16:37 10° NE daylight
18 Nov - 20:51:26 10° WNW 20:53:30 13° NW 20:55:34 10° NNW daylight
19 Nov - 14:28:47 10° NNW 14:32:54 28° NNE 14:37:02 10° E visible
19 Nov - 16:09:52 10° WNW 16:14:34 51° N 16:19:16 10° E daylight
19 Nov - 17:51:47 10° W 17:56:26 47° NNW 18:01:03 10° ENE daylight
19 Nov - 19:34:12 10° W 19:38:00 23° NNW 19:41:44 10° NNE daylight
20 Nov - 13:14:15 10° N 13:17:18 17° NE 13:20:21 10° ENE visible
20 Nov - 14:54:08 10° NW 14:58:40 40° NNE 15:03:12 10° E visible
20 Nov - 16:35:45 10° WNW 16:40:30 54° N 16:45:13 10° ENE daylight
20 Nov - 18:17:51 10° W 18:22:17 36° NNW 18:26:39 10° NE daylight
20 Nov - 20:01:10 10° WNW 20:03:32 14° NW 20:05:53 10° N daylight
21 Nov - 13:38:50 10° NNW 13:42:54 27° NNE 13:46:59 10° E visible
21 Nov - 15:19:50 10° WNW 15:24:32 50° N 15:29:14 10° E daylight
21 Nov - 17:01:44 10° W 17:06:25 48° NNW 17:11:03 10° ENE daylight
21 Nov - 18:44:06 10° W 18:48:00 24° NNW 18:51:51 10° NNE daylight
